Flag for U.S.A. Weather past 2 weeks in Concord, California, U.S.A.

Now
55 °F

Scattered clouds.


Feels Like: 52 °F
Forecast: 50 / 63 °F
Wind: 9 mph from West

Location: Buchanan Field

Current Time: Feb 27, 2015 at 8:05:35 AM

Latest Report: Feb 27, 2015 at 6:53 AM


Visibility: 10 mi

Pressure: 29.82 "Hg

Humidity: 69%

Dew point: 45 °F

Location of ConcordLocation

Historic Weather in Concord — Graph

°F

Concord temperature yesterday

Maximum temperature yesterday: 73 °F (at 2:53 PM)
Minimum temperature yesterday: 46 °F (at 3:53 AM)
Average temperature yesterday: 59 °F

Past Weeks' High & Low Weather Summary

 TemperatureHumidityPressure
High74 °F (Feb 14, 1:53 PM)97% (Feb 19, 7:53 AM)30.32 "Hg (Feb 19, 7:53 AM)
Low36 °F (Feb 24, 4:53 AM)9% (Feb 24, 11:53 AM)29.79 "Hg (Feb 21, 5:53 PM)
Average57 °F66%30.03 "Hg
* Reported Feb 12 6:53 AM — Feb 27 6:53 AM, Concord, Weather by CustomWeather, © 2015

Note: Actual official high and low records may vary slightly from our data, if they occured in-between our weather recording intervals... More about our weather records

Advertising

Concord weather history for previous 24 hours

 ConditionsComfort  
Time TempWeatherWind HumidityBarometerVisibility
6:53 AM
Fri, Feb 27
55 °FScattered clouds.9 mph69%29.82 "Hg10 mi
5:53 AM53 °FClear.5 mph77%29.83 "Hg10 mi
4:53 AM53 °FClear.9 mph77%29.84 "Hg10 mi
3:53 AM54 °FClear.3 mph74%29.84 "Hg10 mi
2:53 AM53 °FClear.7 mph77%29.84 "Hg10 mi
1:53 AM55 °FClear.9 mph72%29.86 "Hg10 mi
12:53 AM56 °FClear.7 mph70%29.87 "Hg10 mi
11:53 PM
Thu, Feb 26
57 °FClear.10 mph67%29.85 "Hg10 mi
10:53 PM59 °FClear.10 mph62%29.87 "Hg10 mi
9:53 PM60 °FClear.12 mph58%29.86 "Hg10 mi
8:53 PM60 °FClear.8 mph60%29.87 "Hg10 mi
7:53 PM62 °FClear.No wind56%29.87 "Hg10 mi
6:53 PM63 °FClear.18 mph56%29.85 "Hg10 mi
5:53 PM66 °FSunny.7 mph49%29.86 "Hg10 mi
4:53 PM69 °FSunny.12 mph47%29.88 "Hg10 mi
3:53 PM72 °FSunny.15 mph40%29.88 "Hg10 mi
2:53 PM73 °FSunny.9 mph38%29.91 "Hg10 mi
1:53 PM71 °FSunny.8 mph42%29.92 "Hg10 mi
12:53 PM70 °FSunny.6 mph39%29.95 "Hg10 mi
11:53 AM69 °FSunny.6 mph36%29.99 "Hg10 mi
10:53 AM66 °FSunny.No wind50%30.02 "Hg10 mi
9:53 AM60 °FSunny.No wind62%30.03 "Hg10 mi
8:53 AM55 °FScattered clouds.No wind72%30.05 "Hg10 mi
Weather by CustomWeather, © 2015

See weather overviewHow to use our weather pages